Weather History for PASO - January, 2014

Change the Weather History Date:

Wednesday, January 22, 2014

  Actual Average (PAHO) Record (PAHO)
Temperature  
Mean Temperature 38 °F -  
Max Temperature 43 °F 30 °F 50 °F (2014)
Min Temperature 33 °F 19 °F -10 °F (1971)
Degree Days  
Heating Degree Days 27    
Moisture  
Dew Point 36 °F    
Average Humidity 98    
Maximum Humidity 100    
Minimum Humidity 82    
Precipitation  
Precipitation 0.15 in - - ()
Sea Level Pressure  
Sea Level Pressure 29.45 in    
Wind  
Wind Speed 1 mph (SE)    
Max Wind Speed 8 mph    
Max Gust Speed -    
Visibility 6 miles    
Events Rain    
Averages and records for this station are not official NWS values.
T = Trace of Precipitation, MM = Missing Value Source: NWS Daily Summary

Daily Weather History Graph

Daily Weather History Graph

Search for Another Location

Airport or City:

Trip Planner

Search our weather history database for the weather conditions in past years. The results will help you decide how hot, cold, wet, or windy it might be!

Date:

Astronomy

Jan. 22, 2014 Rise Set
Actual Time 9:37 AM AKST 4:59 PM AKST
Civil Twilight 8:48 AM AKST 5:48 PM AKST
Nautical Twilight 7:57 AM AKST 6:40 PM AKST
Astronomical Twilight 7:08 AM AKST 7:29 PM AKST
Moon 12:18 AM AKST (1/22) 11:01 AM AKST (1/22)
Length of Visible Light 9h 00m
Length of Day
7h 21m
Waning Gibbous, 64% of the Moon is Illuminated
Jan 22
Waning Gibbous
Jan 23
Last Quarter
Jan 30
New
Feb 6
First Quarter
Feb 14
Full

Hourly Weather History & Observations

Time (AKST) Temp. Windchill Dew Point Humidity Pressure Visibility Wind Dir Wind Speed Gust Speed Precip Events Conditions
12:53 AM 33.1 °F - 33.1 °F 100% 29.60 in 9.0 mi Calm Calm - N/A   Overcast
1:53 AM 33.1 °F - 33.1 °F 100% 29.60 in 9.0 mi Calm Calm - N/A   Overcast
2:24 AM 33.8 °F - 33.8 °F 100% 29.58 in 6.0 mi Calm Calm - N/A   Overcast
3:53 AM 34.0 °F - 34.0 °F 100% 29.56 in 6.0 mi Calm Calm - 0.01 in Rain Light Rain
4:37 AM 33.8 °F - 33.8 °F 100% 29.52 in 2.0 mi Calm Calm - 0.01 in Rain Light Rain
4:46 AM 33.8 °F - 33.8 °F 100% 29.52 in 4.0 mi Calm Calm - 0.01 in Rain Light Rain
4:53 AM 34.0 °F - 34.0 °F 100% 29.52 in 10.0 mi Calm Calm - 0.01 in   Overcast
5:53 AM 34.0 °F - 34.0 °F 100% 29.49 in 8.0 mi Calm Calm - 0.01 in Rain Light Rain
6:53 AM 34.0 °F - 34.0 °F 100% 29.46 in 4.0 mi Calm Calm - 0.02 in Rain Light Rain
7:53 AM 34.0 °F 29.8 °F 34.0 °F 100% 29.45 in 7.0 mi South 4.6 mph - 0.03 in Rain Light Rain
8:53 AM 35.1 °F - 35.1 °F 100% 29.45 in 5.0 mi Calm Calm - 0.03 in Rain Light Rain
9:53 AM 35.1 °F - 35.1 °F 100% 29.44 in 1.8 mi Calm Calm - 0.01 in Rain Light Rain
10:46 AM 35.6 °F - 35.6 °F 100% 29.43 in 1.8 mi Calm Calm - 0.02 in Rain Light Rain
11:14 AM 35.6 °F - 35.6 °F 100% 29.41 in 0.8 mi Calm Calm - 0.00 in Rain Light Rain
11:22 AM 35.6 °F - 35.6 °F 100% 29.41 in 2.0 mi Calm Calm - 0.00 in   Overcast
11:31 AM 35.6 °F - 35.6 °F 100% 29.41 in 3.0 mi Calm Calm - 0.00 in   Overcast
11:43 AM 35.6 °F - 35.6 °F 100% 29.40 in 2.5 mi Calm Calm - 0.00 in   Overcast
11:51 AM 35.6 °F - 35.6 °F 100% 29.40 in 6.0 mi Calm Calm - 0.00 in   Overcast
11:53 AM 36.0 °F - 36.0 °F 100% 29.40 in 6.0 mi Calm Calm - 0.00 in   Overcast
12:53 PM 37.9 °F - 37.9 °F 100% 29.40 in 9.0 mi Calm Calm - N/A   Overcast
1:08 PM 37.4 °F - 37.4 °F 100% 29.39 in 1.8 mi Calm Calm - 0.00 in Rain Light Rain
1:14 PM 39.2 °F 35.9 °F 37.4 °F 93% 29.39 in 3.0 mi SE 4.6 mph - 0.00 in Rain Light Rain
1:53 PM 42.1 °F 40.2 °F 39.9 °F 92% 29.39 in 10.0 mi SSE 3.5 mph - 0.01 in   Overcast
2:53 PM 43.0 °F 38.2 °F 37.9 °F 82% 29.41 in 10.0 mi SSE 8.1 mph - N/A   Mostly Cloudy
3:53 PM 42.1 °F 39.2 °F 39.0 °F 89% 29.39 in 10.0 mi ESE 4.6 mph - 0.00 in Rain Light Rain
4:53 PM 43.0 °F 41.3 °F 39.0 °F 86% 29.40 in 10.0 mi Variable 3.5 mph - 0.01 in   Scattered Clouds
5:53 PM 43.0 °F 39.5 °F 39.9 °F 89% 29.42 in 10.0 mi SSE 5.8 mph - 0.01 in Rain Light Rain
7:53 PM 37.9 °F - 37.9 °F 100% 29.45 in 10.0 mi Calm Calm - 0.00 in   Mostly Cloudy
8:53 PM 37.9 °F - 37.9 °F 100% 29.44 in 10.0 mi Calm Calm - 0.00 in   Mostly Cloudy
9:53 PM 39.0 °F 36.8 °F 37.9 °F 96% 29.45 in 10.0 mi Variable 3.5 mph - N/A   Overcast
10:53 PM 37.9 °F 34.4 °F 37.0 °F 97% 29.44 in 10.0 mi NNE 4.6 mph - 0.00 in   Overcast
11:53 PM 37.9 °F 35.5 °F 37.0 °F 97% 29.42 in 10.0 mi NE 3.5 mph - N/A   Overcast